EW3989 Weather Reports


time (UTC)temp
C
wind
direction
speed
KPH
gust
KPH
rain 1hr
cm
rain 24hr
cm
rain mn
cm
humidity
%
barometer
mb
20260503071520 10 0.0 4.8 0.00 0.00 0.00 55 1009.9
20260503070548 10 225 1.6 4.8 0.00 0.00 0.00 55 1010.0
20260503054519 8 0.0 0.0 0.00 0.00 0.00 61 1010.5
20260503053528 8 0.0 0.0 0.00 0.00 0.00 58 1010.6
20260503052528 8 0.0 0.0 0.00 0.00 0.00 60 1010.8
20260503051527 8 0.0 1.6 0.00 0.00 0.00 60 1010.8
20260503050528 8 0.0 0.0 0.00 0.00 0.00 58 1010.9
20260503045519 8 0.0 0.0 0.00 0.00 0.00 59 1010.9
20260503044547 8 0.0 0.0 0.00 0.00 0.00 61 1011.0
20260503043536 8 0.0 0.0 0.00 0.00 0.00 64 1011.1
20260503042539 8 0.0 1.6 0.00 0.00 0.00 62 1011.1
20260503041528 8 0.0 0.0 0.00 0.00 0.00 68 1011.3
20260503040519 8 0.0 0.0 0.00 0.00 0.00 67 1011.4
20260503035536 8 0.0 0.0 0.00 0.00 0.00 66 1011.3
20260503034519 8 0.0 0.0 0.00 0.00 0.00 61 1011.4
20260503033518 8 0.0 1.6 0.00 0.00 0.00 64 1011.6
20260503032519 7 0.0 0.0 0.00 0.00 0.00 69 1011.6
20260503031519 7 0.0 0.0 0.00 0.00 0.00 70 1011.8
20260503030527 7 0.0 0.0 0.00 0.00 0.00 69 1012.0
20260503025539 7 0.0 0.0 0.00 0.00 0.00 69 1012.0
20260503024536 7 0.0 0.0 0.00 0.00 0.00 69 1012.1
20260503023545 7 0.0 0.0 0.00 0.00 0.00 65 1012.0
20260503022519 7 0.0 0.0 0.00 0.00 0.00 61 1012.0
20260503021528 7 0.0 0.0 0.00 0.00 0.00 60 1012.0
20260503020519 7 0.0 0.0 0.00 0.00 0.00 60 1012.1
20260503015541 8 0.0 0.0 0.00 0.00 0.00 56 1012.1
20260503014539 8 0.0 0.0 0.00 0.00 0.00 51 1012.2
20260503013519 8 0.0 0.0 0.00 0.00 0.00 50 1012.1
20260503012519 9 0.0 0.0 0.00 0.00 0.00 50 1012.0
20260503011539 10 0.0 0.0 0.00 0.00 0.00 47 1012.0
20260503010600 10 0.0 0.0 0.00 0.00 0.00 45 1012.1
20260503005519 11 0.0 0.0 0.00 0.00 0.00 43 1012.0
20260503004527 11 0.0 0.0 0.00 0.00 0.00 43 1011.9
20260503003519 12 0.0 0.0 0.00 0.00 0.00 42 1012.0
20260503002518 12 0.0 0.0 0.00 0.00 0.00 39 1011.8
20260503001519 12 0.0 0.0 0.00 0.00 0.00 39 1011.8
20260503000527 13 0.0 4.8 0.00 0.00 0.00 39 1011.9
20260502235518 13 0.0 3.2 0.00 0.00 0.00 38 1011.8
20260502234527 13 0.0 4.8 0.00 0.00 0.00 33 1011.9
20260502233518 14 0.0 6.4 0.00 0.00 0.00 34 1011.9
20260502232530 14 0.0 0.0 0.00 0.00 0.00 33 1012.0
20260502231518 14 0.0 6.4 0.00 0.00 0.00 33 1012.0
20260502230519 14 0.0 3.2 0.00 0.00 0.00 34 1012.1
20260502225518 15 0.0 4.8 0.00 0.00 0.00 32 1012.3
20260502224559 15 0.0 1.6 0.00 0.00 0.00 32 1012.4
20260502223518 15 0.0 4.8 0.00 0.00 0.00 32 1012.6
20260502222519 15 0.0 3.2 0.00 0.00 0.00 31 1012.5
20260502221544 15 0.0 4.8 0.00 0.00 0.00 31 1012.6
20260502220518 15 0.0 1.6 0.00 0.00 0.00 31 1012.6
20260502215527 15 0.0 3.2 0.00 0.00 0.00 33 1012.6
20260502214547 15 0.0 6.4 0.00 0.00 0.00 33 1012.9
20260502213544 16 0.0 0.0 0.00 0.00 0.00 29 1013.0
20260502212518 16 0.0 3.2 0.00 0.00 0.00 31 1013.1
20260502211518 16 0.0 6.4 0.00 0.00 0.00 31 1013.2
20260502210518 16 248 1.6 9.7 0.00 0.00 0.00 30 1013.3
20260502205538 16 0.0 1.6 0.00 0.00 0.00 31 1013.4
20260502204519 16 225 1.6 12.9 0.00 0.00 0.00 34 1013.6
20260502203539 16 225 1.6 11.3 0.00 0.00 0.00 30 1013.8
20260502202518 16 225 1.6 9.7 0.00 0.00 0.00 29 1014.0
20260502201518 16 0.0 3.2 0.00 0.00 0.00 30 1013.9
20260502200518 15 225 1.6 6.4 0.00 0.00 0.00 28 1014.2
20260502195527 16 225 1.6 9.7 0.00 0.00 0.00 28 1014.2
20260502194520 16 0.0 4.8 0.00 0.00 0.00 31 1014.4
20260502193545 16 0.0 4.8 0.00 0.00 0.00 31 1014.7
20260502192518 15 0.0 6.4 0.00 0.00 0.00 35 1014.8
20260502191527 15 0.0 9.7 0.00 0.00 0.00 33 1014.8
20260502190535 15 0.0 0.0 0.00 0.00 0.00 35 1015.0
20260502185520 16 338 1.6 4.8 0.00 0.00 0.00 29 1015.2
20260502184527 15 45 1.6 4.8 0.00 0.00 0.00 31 1015.3
20260502183518 14 0.0 0.0 0.00 0.00 0.00 36 1015.5
20260502182520 15 23 1.6 11.3 0.00 0.00 0.00 31 1015.6
20260502181527 16 225 1.6 12.9 0.00 0.00 0.00 29 1015.8
20260502180518 16 0.0 6.4 0.00 0.00 0.00 31 1016.0
20260502163518 13 225 1.6 4.8 0.00 0.00 0.00 34 1016.9
20260502162725 13 203 1.6 12.9 0.00 0.00 0.00 36 1017.0
20260502162020 13 180 1.6 6.4 0.00 0.00 0.00 35 1017.0
20260502161018 13 0.0 3.2 0.00 0.00 0.00 36 1017.3
20260502152040 12 0.0 1.6 0.00 0.00 0.00 42 1017.9
20260502151100 11 0.0 0.0 0.00 0.00 0.00 37 1017.9
20260502123037 2 0.0 0.0 0.00 0.00 0.00 85 1018.9
20260502122042 1 0.0 0.0 0.00 0.00 0.00 87 1018.7
20260502121019 0 0.0 0.0 0.00 0.00 0.00 90 1018.8
20260502115029 -1 0.0 0.0 0.00 0.00 0.00 90 1018.4
20260502114149 -1 0.0 0.0 0.00 0.00 0.00 90 1018.3
20260502113028 -2 0.0 0.0 0.00 0.00 0.00 90 1018.2
20260502112051 -2 0.0 0.0 0.00 0.00 0.00 90 1018.2
20260502111019 -1 0.0 0.0 0.00 0.00 0.00 90 1018.2
20260502110020 -1 0.0 0.0 0.00 0.00 0.00 90 1018.2
20260502105057 -1 0.0 0.0 0.00 0.00 0.00 90 1018.3
20260502104019 -1 0.0 0.0 0.00 0.00 0.00 90 1018.3
20260502103020 -1 0.0 0.0 0.00 0.00 0.00 90 1018.5
20260502102045 -1 0.0 0.0 0.00 0.00 0.00 90 1018.5
20260502101028 -1 0.0 0.0 0.00 0.00 0.00 90 1018.4
20260502091037 -1 0.0 0.0 0.00 0.00 0.00 89 1018.4